Tracking 20083 objects as of 12-Dec-2019
HD Live streaming from Space Station
objects crossing your sky now

CZ-2D DEB

Track CZ-2D DEB now!
10-day predictions


NORAD ID: 43413
Int'l Code: 2013-068B
Perigee: 675.9 km
Apogee: 862.2 km
Inclination: 98.0 °
Period: 100.1 minutes
Semi major axis: 7140 km
RCS: Unknown
Launch date: November 25, 2013
Source: People's Republic of China (PRC)
Launch site: Jiuquan Satellite Launch Center, China (JSC)

Note: This is SATELLITE DEBRIS
aabbcc
Your satellite tracking list
Your tracking list is empty




NASA's NSSDC Master Catalog

Two Line Element Set (TLE):
1 43413U 13068B   19346.16908409  .00000331  00000-0  10985-3 0  9996
2 43413  97.9773 248.6090 0130488  24.2903 336.4363 14.38959371309013
Source of the keplerian elements: AFSPC